Station BGNN4 - 8519483 - BERGEN POINT WEST REACH- NY

Sailing guide
Sailing guide
english français italiano spagnolo
english français italiano español
Sea - Seek
Station BGNN4 - 8519483 - BERGEN POINT WEST REACH- NY
Station BGNN4 - 8519483 - BERGEN POINT WEST REACH- NY

Weather report - Station BGNN4 - 8519483 - BERGEN POINT WEST REACH- NY

Time Wind speed knots Wind direction Pressure ----
April 18, 2015 7:48 am EDT 1016 Air Temperature:14.9
April 18, 2015 6:48 am EDT 1020 Air Temperature:12
April 18, 2015 5:48 am EDT 1015 Air Temperature:11.8
April 18, 2015 4:48 am EDT 1022 Air Temperature:13.7
April 18, 2015 3:48 am EDT 1015 Air Temperature:14.7
April 18, 2015 2:24 am EDT 1017 Air Temperature:15.1
April 18, 2015 1:48 am EDT 1015 Air Temperature:15
April 18, 2015 12:48 am EDT 1015 Air Temperature:17.5
April 17, 2015 11:48 pm EDT 1015 Air Temperature:15.8
April 17, 2015 10:48 pm EDT 1014 Air Temperature:17.9
April 17, 2015 9:48 pm EDT 1014 Air Temperature:19.2
April 17, 2015 8:48 pm EDT 1014 Air Temperature:19.8
April 17, 2015 7:48 pm EDT 1013 Air Temperature:20.3
April 17, 2015 6:48 pm EDT 1013 Air Temperature:21.1
April 17, 2015 5:42 pm EDT 1012 Air Temperature:21.5
April 17, 2015 4:42 pm EDT 1013 Air Temperature:20.6
April 17, 2015 1:30 pm EDT 1015 Air Temperature:17.1
April 17, 2015 12:48 pm EDT 1016 Air Temperature:16.8
April 17, 2015 11:48 am EDT 1017 Air Temperature:15.7
April 17, 2015 9:48 am EDT 1032 Air Temperature:14
April 17, 2015 8:48 am EDT 1023 Air Temperature:13.1
April 17, 2015 7:48 am EDT 1024 Air Temperature:12.6
April 17, 2015 6:48 am EDT 1025 Air Temperature:12.3